Location: Days
(41.3591°N, 106.7339°W)
Time: 05:41:48
(UTC+00:00)

ESTCUBE 1 - Visible Passes

Search period start: 28 June 2022 00:00
Search period end: 08 July 2022 00:00
Orbit: 644 x 659 km, 97.9° (Epoch: 27 June)

Date Brightness Start Highest point End Pass type
(mag) Time Alt. Az. Time Alt. Az. Time Alt. Az.
28 Jun ? 03:55:06 10° E 03:57:17 14° ENE 03:59:29 10° NNE visible
28 Jun ? 05:32:29 47° SSW 05:33:30 62° W 05:37:56 10° NNW visible
29 Jun ? 04:21:58 18° ESE 04:24:00 24° ENE 04:27:37 10° NNE visible
29 Jun ? 05:59:48 29° WSW 06:00:36 31° W 06:04:36 10° NNW visible
30 Jun ? 04:49:17 32° ESE 04:50:50 45° ENE 04:55:06 10° N visible
30 Jun ? 06:27:06 16° WSW 06:27:48 17° W 06:30:40 10° NW visible
01 Jul ? 05:16:36 50° SSE 05:17:46 89° ENE 05:22:15 10° NNW visible
02 Jul ? 04:06:06 12° E 04:08:26 17° ENE 04:11:22 10° NNE visible
02 Jul ? 05:43:55 40° SW 05:44:48 46° W 05:49:07 10° NNW visible
03 Jul ? 04:33:24 23° ESE 04:35:11 31° ENE 04:39:08 10° N visible
03 Jul ? 06:11:14 23° WSW 06:11:56 24° W 06:15:34 10° NW visible
04 Jul ? 05:00:43 41° SE 05:02:03 60° ENE 05:06:28 10° N visible
04 Jul ? 06:38:33 12° W 06:39:10 12° W 06:41:06 10° WNW visible
05 Jul ? 03:51:02 10° E 03:52:52 12° ENE 03:54:42 10° NE visible
05 Jul ? 05:28:02 51° SSW 05:29:01 69° WSW 05:33:29 10° NNW visible
06 Jul ? 04:17:32 17° ESE 04:19:33 22° ENE 04:23:01 10° NNE visible
06 Jul ? 05:55:21 32° WSW 05:56:05 35° W 06:00:12 10° NNW visible
07 Jul ? 04:44:50 30° ESE 04:46:22 41° ENE 04:50:34 10° N visible
07 Jul ? 06:22:40 18° WSW 06:23:16 18° W 06:26:23 10° NW visible
